Hourly Weather Golas

Today, 17 May, Monday

Time Temperature Precipitation Wind Pressure Humidity
00:00 +9°C° 0 mm 2 mps 743 mmHg 91%
01:00 +9°C° 0 mm 2 mps 743 mmHg 91%
02:00 +8°C° 0 mm 2 mps 743 mmHg 91%
03:00 +8°C° 0 mm 2 mps 743 mmHg 91%
04:00 +8°C° 0 mm 2 mps 743 mmHg 90%
05:00 +10°C° 0 mm 2 mps 743 mmHg 86%
06:00 +12°C° 0 mm 2 mps 743 mmHg 82%
07:00 +13°C° 0 mm 3 mps 743 mmHg 78%
08:00 +16°C° 0 mm 3 mps 743 mmHg 73%
09:00 +17°C° 0 mm 3 mps 743 mmHg 67%
10:00 +18°C° 0 mm 3 mps 743 mmHg 62%
11:00 +19°C° 0.4 mm 3 mps 743 mmHg 61%
12:00 +19°C° 0.4 mm 3 mps 743 mmHg 61%
13:00 +19°C° 0.4 mm 3 mps 743 mmHg 61%
14:00 +18°C° 0.7 mm 3 mps 743 mmHg 68%
15:00 +17°C° 0.7 mm 3 mps 743 mmHg 75%
16:00 +16°C° 0.7 mm 3 mps 743 mmHg 82%
17:00 +14°C° 0.5 mm 3 mps 743 mmHg 86%
18:00 +13°C° 0.5 mm 3 mps 743 mmHg 90%
19:00 +12°C° 0.5 mm 3 mps 743 mmHg 94%
20:00 +12°C° 0.4 mm 3 mps 743 mmHg 95%
21:00 +11°C° 0.4 mm 3 mps 743 mmHg 96%
22:00 +11°C° 0.4 mm 3 mps 743 mmHg 96%
23:00 +11°C° 1.2 mm 3 mps 743 mmHg 97%

Tomorrow, 18 May, Tuesday

Time Temperature Precipitation Wind Pressure Humidity
00:00 +10°C° 1.2 mm 3 mps 743 mmHg 97%
01:00 +10°C° 1.2 mm 3 mps 743 mmHg 97%
02:00 +10°C° 1.2 mm 3 mps 743 mmHg 97%
03:00 +10°C° 1.2 mm 2 mps 744 mmHg 97%
04:00 +10°C° 1.2 mm 2 mps 744 mmHg 97%
05:00 +10°C° 0.3 mm 3 mps 744 mmHg 97%
06:00 +10°C° 0.3 mm 3 mps 744 mmHg 96%
07:00 +11°C° 0.3 mm 3 mps 744 mmHg 95%
08:00 +11°C° 0.1 mm 3 mps 744 mmHg 93%
09:00 +12°C° 0.1 mm 4 mps 745 mmHg 91%
10:00 +12°C° 0.1 mm 4 mps 745 mmHg 90%
11:00 +12°C° 0.3 mm 4 mps 745 mmHg 89%
12:00 +13°C° 0.3 mm 4 mps 745 mmHg 87%
13:00 +13°C° 0.3 mm 5 mps 745 mmHg 86%
14:00 +13°C° 0.3 mm 4 mps 745 mmHg 86%
15:00 +13°C° 0.3 mm 4 mps 746 mmHg 86%
16:00 +13°C° 0.3 mm 4 mps 746 mmHg 87%
17:00 +12°C° 0.1 mm 3 mps 746 mmHg 88%
18:00 +12°C° 0.1 mm 3 mps 746 mmHg 89%
19:00 +13°C° 0.1 mm 2 mps 746 mmHg 90%
20:00 +11°C° 0 mm 3 mps 746 mmHg 91%
21:00 +11°C° 0 mm 3 mps 746 mmHg 93%
22:00 +10°C° 0 mm 3 mps 747 mmHg 94%
23:00 +9°C° 0 mm 3 mps 747 mmHg 95%

Day after tomorrow, 19 May, Wednesday

Time Temperature Precipitation Wind Pressure Humidity
00:00 +9°C° 0 mm 3 mps 747 mmHg 95%
01:00 +9°C° 0 mm 2 mps 747 mmHg 96%
02:00 +8°C° 0.2 mm 3 mps 747 mmHg 96%
03:00 +8°C° 0.2 mm 3 mps 747 mmHg 97%
04:00 +8°C° 0.2 mm 3 mps 748 mmHg 97%
05:00 +9°C° 0 mm 3 mps 748 mmHg 94%
06:00 +10°C° 0 mm 4 mps 748 mmHg 91%
07:00 +11°C° 0 mm 4 mps 748 mmHg 88%
08:00 +12°C° 0 mm 4 mps 748 mmHg 81%
09:00 +13°C° 0 mm 4 mps 749 mmHg 74%
10:00 +14°C° 0 mm 4 mps 749 mmHg 67%
11:00 +14°C° 0.1 mm 5 mps 749 mmHg 68%
12:00 +14°C° 0.1 mm 5 mps 749 mmHg 69%
13:00 +14°C° 0.1 mm 5 mps 749 mmHg 70%
14:00 +15°C° 0.2 mm 5 mps 749 mmHg 69%
15:00 +15°C° 0.2 mm 5 mps 749 mmHg 68%
16:00 +15°C° 0.2 mm 5 mps 749 mmHg 68%
17:00 +14°C° 0.2 mm 4 mps 749 mmHg 75%
18:00 +12°C° 0.2 mm 3 mps 749 mmHg 81%
19:00 +11°C° 0.2 mm 3 mps 749 mmHg 88%
20:00 +10°C° 0.1 mm 3 mps 749 mmHg 90%
21:00 +9°C° 0.1 mm 3 mps 750 mmHg 92%
22:00 +8°C° 0.1 mm 3 mps 750 mmHg 93%
23:00 +8°C° 0 mm 3 mps 750 mmHg 94%

20 May, Thursday

Time Temperature Precipitation Wind Pressure Humidity
00:00 +7°C° 0 mm 3 mps 750 mmHg 94%
01:00 +7°C° 0 mm 3 mps 750 mmHg 95%
02:00 +5°C° 0 mm 3 mps 750 mmHg 95%
03:00 +5°C° 0 mm 3 mps 751 mmHg 95%
04:00 +5°C° 0 mm 3 mps 751 mmHg 95%
05:00 +7°C° 0 mm 3 mps 751 mmHg 90%
06:00 +7°C° 0 mm 4 mps 751 mmHg 86%
07:00 +8°C° 0 mm 5 mps 751 mmHg 81%
08:00 +10°C° 0 mm 5 mps 751 mmHg 74%
09:00 +11°C° 0 mm 6 mps 751 mmHg 68%
10:00 +14°C° 0 mm 6 mps 751 mmHg 61%
11:00 +15°C° 0 mm 6 mps 751 mmHg 58%
12:00 +15°C° 0 mm 6 mps 751 mmHg 54%
13:00 +16°C° 0 mm 6 mps 751 mmHg 51%
14:00 +16°C° 0 mm 6 mps 751 mmHg 56%
15:00 +15°C° 0 mm 6 mps 751 mmHg 60%
16:00 +14°C° 0 mm 6 mps 751 mmHg 64%
17:00 +13°C° 0.1 mm 6 mps 751 mmHg 69%
18:00 +12°C° 0.1 mm 5 mps 751 mmHg 73%
19:00 +11°C° 0.1 mm 4 mps 751 mmHg 77%
20:00 +10°C° 0 mm 4 mps 752 mmHg 78%
21:00 +8°C° 0 mm 4 mps 752 mmHg 79%
22:00 +6°C° 0 mm 4 mps 753 mmHg 80%
23:00 +6°C° 0 mm 4 mps 753 mmHg 82%

21 May, Friday

Time Temperature Precipitation Wind Pressure Humidity
00:00 +5°C° 0 mm 4 mps 753 mmHg 84%
01:00 +4°C° 0 mm 4 mps 753 mmHg 86%
02:00 +4°C° 0 mm 4 mps 753 mmHg 87%
03:00 +4°C° 0 mm 4 mps 753 mmHg 88%
04:00 +3°C° 0 mm 4 mps 753 mmHg 89%
05:00 +5°C° 0 mm 5 mps 753 mmHg 83%
06:00 +6°C° 0 mm 5 mps 753 mmHg 76%
07:00 +7°C° 0 mm 6 mps 753 mmHg 70%
08:00 +8°C° 0 mm 6 mps 753 mmHg 64%
09:00 +9°C° 0 mm 6 mps 753 mmHg 59%
10:00 +11°C° 0 mm 7 mps 753 mmHg 54%
11:00 +11°C° 0 mm 7 mps 753 mmHg 52%
12:00 +13°C° 0 mm 6 mps 752 mmHg 51%
13:00 +14°C° 0 mm 6 mps 752 mmHg 50%
14:00 +14°C° 0 mm 6 mps 752 mmHg 53%
15:00 +13°C° 0 mm 5 mps 752 mmHg 56%
16:00 +13°C° 0 mm 5 mps 752 mmHg 60%
17:00 +12°C° 0 mm 4 mps 752 mmHg 65%
18:00 +11°C° 0 mm 3 mps 751 mmHg 70%
19:00 +12°C° 0 mm 2 mps 751 mmHg 76%
20:00 +10°C° 0 mm 2 mps 751 mmHg 77%
21:00 +10°C° 0 mm 2 mps 751 mmHg 78%
22:00 +9°C° 0 mm 3 mps 751 mmHg 80%
23:00 +9°C° 0.2 mm 2 mps 751 mmHg 83%

22 May, Saturday

Time Temperature Precipitation Wind Pressure Humidity
00:00 +9°C° 0.2 mm 2 mps 750 mmHg 87%
01:00 +9°C° 0.2 mm 2 mps 750 mmHg 90%
02:00 +9°C° 0.4 mm 2 mps 750 mmHg 91%
03:00 +9°C° 0.4 mm 2 mps 749 mmHg 92%
04:00 +9°C° 0.4 mm 2 mps 749 mmHg 93%
05:00 +10°C° 0 mm 3 mps 749 mmHg 89%
06:00 +11°C° 0 mm 3 mps 749 mmHg 85%
07:00 +12°C° 0 mm 4 mps 749 mmHg 81%
08:00 +14°C° 0 mm 5 mps 748 mmHg 73%
09:00 +16°C° 0 mm 5 mps 748 mmHg 65%
10:00 +17°C° 0 mm 6 mps 748 mmHg 57%
11:00 +19°C° 0 mm 6 mps 748 mmHg 56%
12:00 +20°C° 0 mm 6 mps 748 mmHg 55%
13:00 +20°C° 0 mm 6 mps 748 mmHg 55%
14:00 +19°C° 0.3 mm 6 mps 748 mmHg 62%
15:00 +17°C° 0.3 mm 5 mps 748 mmHg 69%
16:00 +17°C° 0.3 mm 5 mps 748 mmHg 75%
17:00 +15°C° 0.7 mm 4 mps 748 mmHg 81%
18:00 +14°C° 0.7 mm 4 mps 748 mmHg 86%
19:00 +13°C° 0.7 mm 3 mps 749 mmHg 92%
20:00 +12°C° 0.1 mm 3 mps 749 mmHg 93%
21:00 +13°C° 0.1 mm 2 mps 749 mmHg 93%
22:00 +12°C° 0.1 mm 2 mps 749 mmHg 94%
23:00 +12°C° 0.4 mm 2 mps 749 mmHg 94%
Show more